SCP
0 0 0 0 0 0 0 0 0 0 0 0 0 0 0 0 0 0 0 0 0 -0 0 0 -0 0 -0 -0 0 0 0 0 0 0 0 0 0 0 0 0 0 0 0
0 0 0 0 0 0 0 0 0 0 0 0 0 0 0 0 0 0 0 0 0 0 -0 0 -0 0 -0 -0 0 0 0 0 0 0 0 0 0 0 0 0 0 0 0
0 0 0 0 0 0 0 0 0 0 0 0 0 0 0 0 0 0 0 0 0 0 -0 -0 0 -0 -0 -0 0 0 0 0 0 0 0 0 0 0 0 0 0 0 0
0 0 0 0 0 0 0 0 0 0 0 0 0 0 0 0 0 0 0 0 -0 -0 0 0 -0 -0 -0 -0 0 0 0 0 0 0 0 0 0 0 0 0 0 0 0
0 0 0 0 0 0 0 0 0 0 0 0 0 0 0 0 0 0 0 0 -0 -0 0 -0 0 0 -0 0 0 0 0 0 0 0 0 0 0 0 0 0 0 0 0
0 0 0 0 0 0 0 0 0 0 0 0 0 0 0 0 0 0 0 0 0 -0 -0 -0 0 0 -0 0 -0 0 0 0 0 0 0 0 0 0 0 0 0 0 0
-0 0 -0 0 0 0 0 0 0 0 0 0 0 0 0 0 0 0 0 0 0 -0 -0 0 -0 0 0 0 0 0 0 0 0 0 0 0 0 0 0 0 0 0 0
0 -0 -0 0 0 0 0 0 0 0 0 0 0 0 0 0 0 0 0 0 0 0 0 0 0 0 0 0 0 0 0 0 0 0 0 0 0 0 0 0 0 0 0
0 0 0 0 0 0 0 0 0 0 0 -0 0 0 0 0 0 0 0 0 -0 0 -0 -0 0 0 0 0 0 -0 0 0 0 0 0 0 0 0 0 0 0 0 0
0 0 -0 0 0 -0 0 0 0 0 0 -0 0 0 0 0 0 0 0 0 -0 -0 0 0 0 0 0 0 0 0 0 0 0 0 0 0 0 0 0 0 0 0 0
0 0 0 -0 -0 -0 0 0 0 0 0 -0 0 0 0 0 0 0 0 0 0 -0 0 0 0 0 0 0 0 0 0 0 0 0 0 0 0 0 0 0 0 0 0
0 0 -0 -0 -0 -0 0 0 0 0 0 0 0 0 0 0 0 0 0 0 0 -0 0 0 0 0 0 0 0 0 0 0 0 0 0 0 0 0 0 0 0 0 0
-0 -0 -0 -0 -0 -0 0 0 0 0 0 0 0 0 0 0 0 0 0 0 0 -0 -0 0 0 0 0 0 0 0 0 0 0 0 0 0 0 0 0 0 0 0 0
-0 -0 -0 -0 -0 -0 -0 0 0 0 0 0 0 0 0 0 0 0 0 0 0 0 0 0 -0 -0 -0 0 0 0 0 0 0 0 0 0 0 0 0 0 0 0 0
-0 -0 -0 -0 -0 -0 -0 -0 0 0 0 0 0 0 0 0 0 0 0 0 0 0 0 0 -0 -0 -0 -0 0 0 0 0 0 0 0 0 0 0 0 0 0 0 0
-0 -0 -0 -0 -0 -0 -0 -0 0 0 0 -0 0 0 0 0 0 0 0 0 0 0 0 -0 0 -0 0 0 0 0 0 0 0 0 0 0 0 0 0 0 0 0 0
-0 -0 -0 -0 -0 -0 -0 -0 -0 0 0 -0 -0 0 0 0 0 0 0 0 0 0 0 0 0 0 0 0 0 0 0 0 0 0 0 0 -0 0 0 0 0 0 0
-0 -0 -0 -0 -0 -0 -0 -0 -0 -0 0 -0 -0 0 0 0 0 0 0 0 0 0 0 0 0 0 0 0 0 0 0 0 0 -0 -0 -0 -0 0 0 0 0 0 0
-0 -0 -0 -0 -0 -0 -0 -0 -0 -0 -0 -0 -0 -0 0 0 0 0 0 0 0 0 0 0 0 0 0 0 -0 -0 -0 -0 -0 -0 -0 -0 -0 0 0 0 0 0 0
-0 -0 -0 -0 -0 -0 -0 -0 -0 -0 -0 -0 -0 -0 -0 0 0 0 0 0 0 0 0 0 0 0 0 -0 -0 -0 -0 -0 -0 -0 -0 -0 -0 -0 -0 0 0 0 -0
-0 -0 -0 -0 -0 -0 -0 -0 -0 -0 -0 -0 -0 -0 -0 -0 0 0 0 0 0 0 0 0 0 0 0 -0 -0 -0 -0 -0 -0 -0 -0 -0 0 0 0 0 0 -0 -0
-0 -0 -0 -0 0 -0 -0 -0 -0 -0 -0 0 -0 -0 -0 -0 0 -0 -0 -0 -0 0 0 0 0 -0 -0 -0 -0 -0 -0 -0 -0 0 0 0 0 -0 -0 -0 0 0 0
-0 -0 0 0 0 -0 -0 -0 -0 -0 -0 0 0 -0 -0 -0 -0 -0 -0 0 0 0 0 0 0 0 -0 -0 0 0 0 -0 0 0 0 -0 -0 -0 -0 0 0 0 0
0 -0 0 0 -0 -0 -0 0 -0 -0 -0 0 0 -0 -0 -0 -0 -0 -0 -0 0 0 0 0 -0 -0 -0 -0 -0 -0 0 0 0 -0 -0 -0 0 0 0 0 0 0 0
0 0 0 0 0 0 0 0 0 0 0 0 0 0 0 -0 -0 -0 -0 -0 -0 -0 -0 -0 -0 -0 -0 0 -0 -0 -0 0 0 -0 0 0 0 0 0 0 0 0 0
0 0 0 0 0 0 0 0 0 0 0 0 0 0 0 0 0 0 0 0 0 -0 -0 -0 -0 0 -0 -0 -0 -0 -0 -0 -0 0 0 0 0 0 0 0 0 0 0
Wind_Speed_500mb
64 56 48 42 33 22 17 14 8 19 19 20 19 16 23 24 24 25 24 19 18 18 12 14 12 22 28 39 41 38 39 38 38 48 38 39 40 45 48 47 54 55 48
66 58 52 43 34 23 14 10 11 14 11 14 17 22 24 25 22 24 23 14 14 16 10 10 15 23 27 42 46 42 42 44 43 48 54 37 41 41 47 42 47 51 56
73 64 54 47 35 22 16 11 15 10 9 17 21 24 18 21 16 20 21 6 11 11 14 14 15 16 27 40 46 41 47 50 46 52 47 34 22 52 47 43 46 52 49
66 63 58 49 34 20 18 14 18 5 5 14 24 25 22 26 14 22 22 5 5 9 13 18 19 20 27 37 41 48 52 53 50 35 53 30 60 31 44 44 43 46 50
64 67 58 43 28 20 23 19 13 5 5 13 25 27 28 24 5 16 9 9 2 11 14 19 23 23 31 36 38 47 51 44 53 49 43 40 55 51 64 48 47 39 46
62 59 47 36 28 27 25 16 13 4 7 5 17 25 22 12 10 8 9 7 4 10 10 21 22 27 29 37 41 45 46 45 48 50 45 51 61 56 63 63 51 47 50
64 59 51 42 39 35 23 19 17 3 8 7 14 24 18 18 12 13 11 10 8 11 13 18 26 32 33 37 39 43 41 43 50 42 42 45 47 66 57 57 54 53 49
64 59 51 46 42 31 30 16 20 11 11 2 10 18 19 13 14 15 16 14 15 19 19 18 26 28 33 36 42 39 35 44 42 45 43 40 46 55 53 58 67 55 45
63 57 51 45 40 33 31 22 22 11 12 5 6 14 13 14 16 18 15 15 18 22 18 21 24 31 33 37 41 36 37 45 44 43 43 44 42 57 43 50 63 68 41
61 56 53 47 38 36 30 22 17 19 12 2 8 9 12 13 16 12 18 20 25 25 24 25 30 32 31 39 43 44 43 48 43 41 38 36 39 39 43 43 64 56 54
63 57 54 46 38 37 31 28 23 18 17 11 13 4 11 13 17 16 20 19 22 25 29 27 31 37 39 39 47 50 46 50 48 40 31 34 39 48 43 47 51 43 40
59 55 55 49 40 38 32 28 23 24 15 15 14 10 6 9 16 18 26 23 15 20 25 29 35 36 41 45 44 46 55 61 49 31 25 39 53 47 46 48 43 47 44
59 58 57 51 44 38 35 27 27 27 17 19 15 17 7 10 15 19 21 31 34 33 33 25 30 35 38 40 40 44 47 50 37 32 33 48 58 53 40 53 53 44 43
65 63 61 54 47 41 39 32 26 29 23 25 17 20 11 11 17 19 23 31 34 34 34 28 30 28 28 31 36 35 39 42 42 34 34 39 48 51 52 48 34 27 33
69 68 65 58 51 46 43 37 26 34 28 28 20 16 15 23 27 21 19 23 27 32 29 26 28 30 25 24 34 36 37 33 39 28 35 37 60 60 50 35 25 28 42
76 70 65 59 57 53 47 43 34 39 32 31 26 16 24 26 22 22 18 23 25 25 19 24 29 32 35 31 28 37 36 35 38 37 41 61 56 45 36 31 33 23 25
79 73 70 63 59 58 49 47 41 42 37 33 30 18 32 30 28 27 26 25 21 20 18 17 19 33 34 28 36 40 39 39 41 54 64 57 53 40 33 33 33 30 26
81 77 74 65 59 57 55 47 48 43 38 37 33 22 35 33 31 31 30 27 23 17 13 28 30 29 34 34 35 34 36 37 42 60 53 46 42 38 35 27 30 27 25
76 76 77 69 63 60 59 54 54 46 41 40 39 28 31 38 29 35 35 34 28 19 14 23 29 32 36 35 32 34 41 46 45 46 44 42 41 35 27 29 35 34 33
71 73 79 74 69 65 63 60 58 52 47 38 45 35 23 38 33 37 34 33 36 26 18 18 22 26 31 32 33 38 44 39 37 35 35 35 33 34 33 32 31 30 28
72 68 78 78 74 71 67 64 63 60 50 39 44 42 33 38 35 40 38 30 34 34 24 16 20 24 27 34 32 31 35 36 36 37 40 37 35 30 29 29 29 30 28
70 72 80 79 78 75 71 66 67 60 51 46 48 48 41 37 38 39 41 33 37 38 35 29 19 20 29 36 37 35 31 31 31 33 35 33 34 35 34 33 28 20 18
73 78 80 80 82 79 73 67 62 61 56 50 54 52 48 41 40 40 43 41 41 41 41 37 32 25 27 37 43 38 32 31 31 30 32 34 36 36 33 29 24 21 19
73 79 82 85 84 82 75 61 60 64 61 55 57 58 54 48 42 37 41 43 46 52 47 44 42 34 31 39 50 49 39 41 37 36 39 40 37 33 32 26 25 22 22
66 69 78 83 79 81 76 66 61 66 66 59 59 62 61 55 48 42 41 41 46 54 53 50 44 42 39 41 48 54 50 46 41 41 42 44 43 39 36 31 25 24 28
59 62 70 72 74 73 71 67 66 68 72 67 65 63 66 62 54 44 44 38 41 43 53 37 40 39 30 28 41 50 50 54 50 50 46 45 41 37 31 33 39 38 32
Wind_Direction_500mb
178 182 192 196 205 215 243 263 276 285 312 335 345 343 333 329 333 349 329 311 245 217 204 241 216 189 186 193 181 183 193 185 172 160 156 157 165 178 169 173 182 172 175
167 178 186 195 202 213 228 230 264 274 342 348 344 347 334 322 335 342 354 356 173 185 185 180 176 176 179 185 190 179 175 165 169 159 149 140 158 166 163 163 170 170 172
170 175 182 191 191 203 213 238 225 275 329 340 343 353 336 340 329 354 355 24 140 169 176 181 161 160 186 188 190 185 180 169 175 171 163 150 154 149 163 160 162 161 172
173 178 182 180 189 198 210 197 235 209 289 345 351 358 356 348 327 338 348 74 209 184 174 179 159 176 177 180 186 182 185 183 167 161 164 167 159 140 134 148 160 169 174
174 177 176 177 181 189 199 205 233 200 53 336 344 351 347 348 338 339 24 55 195 195 196 171 166 172 169 170 177 177 185 185 176 167 157 162 152 142 137 145 160 166 177
170 170 171 172 170 185 198 208 212 218 129 309 340 351 352 29 40 37 32 40 68 143 171 176 167 159 165 165 170 178 182 186 183 179 176 165 168 159 157 154 165 167 177
163 164 167 168 171 186 203 191 201 195 126 335 351 11 45 85 63 29 34 41 107 130 141 158 169 164 169 171 171 175 181 183 180 181 176 183 166 168 170 162 159 156 168
163 166 169 171 177 190 193 204 193 169 148 243 359 43 89 55 50 46 50 61 96 116 119 127 152 168 173 171 175 178 177 172 171 172 178 180 184 188 185 177 161 156 162
164 165 169 174 181 188 196 186 182 167 180 282 54 60 62 57 46 33 47 71 103 119 113 125 132 140 163 170 171 168 165 164 172 173 171 182 175 175 185 176 174 161 142
162 166 171 176 183 189 191 182 187 181 190 140 101 48 36 58 53 39 59 90 109 112 125 122 131 136 151 151 154 162 161 165 169 157 153 161 168 172 178 186 179 171 165
166 168 172 176 182 189 192 184 189 190 179 169 155 108 72 54 56 64 71 101 112 112 123 121 131 136 145 153 155 162 161 150 147 152 159 167 166 158 156 169 179 175 174
167 172 173 175 182 189 194 191 191 189 189 180 151 142 122 91 87 81 76 88 106 115 117 125 134 147 146 149 155 162 162 156 151 126 140 157 153 152 153 148 147 167 163
170 174 177 178 185 190 194 191 184 195 187 184 166 156 178 133 118 99 77 83 94 105 109 117 133 147 155 157 158 160 166 172 163 129 124 146 152 146 143 149 145 141 154
173 177 179 180 186 191 196 194 181 198 183 190 184 168 191 154 117 114 102 106 93 89 95 94 113 134 144 154 159 162 158 154 156 139 128 140 154 147 142 142 139 143 147
176 180 181 181 187 190 195 199 185 193 185 194 191 171 176 143 114 116 113 109 97 93 97 106 118 133 130 154 165 165 156 160 168 151 145 146 144 139 134 129 141 159 176
179 182 183 186 188 191 192 199 188 194 186 197 202 187 175 152 140 138 128 124 109 131 120 95 94 126 126 120 118 163 173 175 178 169 157 162 157 152 150 143 150 156 164
182 184 184 190 192 193 192 196 193 194 187 194 201 197 172 165 166 156 145 137 136 133 118 127 117 115 114 129 127 122 130 127 142 145 144 153 169 165 159 152 148 167 174
184 189 187 191 195 196 195 194 195 197 191 191 201 204 174 182 184 172 162 154 158 155 122 135 137 123 112 118 127 132 127 130 133 154 158 152 157 155 154 154 161 162 175
185 194 192 191 193 194 192 190 194 198 196 191 205 203 186 188 187 177 178 174 167 165 144 147 147 144 135 132 129 133 134 132 135 146 156 161 158 153 159 170 175 180 185
185 190 192 191 192 194 193 190 193 198 198 193 205 204 195 190 189 188 196 191 188 183 166 142 158 155 149 143 142 144 146 142 143 150 159 163 162 165 169 172 180 181 186
184 186 189 193 198 194 193 192 193 199 203 194 200 204 197 197 204 195 203 202 194 182 178 177 164 172 175 164 161 159 165 171 165 166 171 170 174 174 172 170 170 173 169
180 185 188 194 198 196 194 195 197 200 200 196 198 205 201 200 202 205 208 211 193 182 180 204 207 196 186 187 181 181 182 187 184 181 179 177 176 177 175 178 175 178 190
180 186 189 195 196 198 200 199 202 194 198 196 201 205 203 206 207 208 209 209 199 188 192 198 214 221 196 189 188 191 188 186 180 179 177 173 170 174 176 179 188 207 218
178 185 190 193 195 200 203 208 200 196 196 196 203 205 205 205 207 213 217 215 207 200 200 203 211 217 200 193 190 190 188 177 170 166 172 174 179 184 194 199 213 227 229
176 183 190 194 197 201 203 206 204 196 195 196 206 209 208 210 213 222 224 226 223 213 208 211 217 210 203 199 196 194 189 184 181 179 183 187 193 201 206 212 216 212 208
177 183 188 192 198 201 205 206 207 203 197 197 207 210 208 210 216 220 217 228 231 218 214 217 212 213 215 205 203 201 195 190 190 192 198 197 201 210 210 204 197 210 211
Wind_Speed_850mb
64 56 48 42 33 22 17 14 8 19 19 20 19 16 23 24 24 25 24 19 18 18 12 14 12 22 28 39 41 38 39 38 38 48 38 39 40 45 48 47 54 55 48
66 58 52 43 34 23 14 10 11 14 11 14 17 22 24 25 22 24 23 14 14 16 10 10 15 23 27 42 46 42 42 44 43 48 54 37 41 41 47 42 47 51 56
73 64 54 47 35 22 16 11 15 10 9 17 21 24 18 21 16 20 21 6 11 11 14 14 15 16 27 40 46 41 47 50 46 52 47 34 22 52 47 43 46 52 49
66 63 58 49 34 20 18 14 18 5 5 14 24 25 22 26 14 22 22 5 5 9 13 18 19 20 27 37 41 48 52 53 50 35 53 30 60 31 44 44 43 46 50
64 67 58 43 28 20 23 19 13 5 5 13 25 27 28 24 5 16 9 9 2 11 14 19 23 23 31 36 38 47 51 44 53 49 43 40 55 51 64 48 47 39 46
62 59 47 36 28 27 25 16 13 4 7 5 17 25 22 12 10 8 9 7 4 10 10 21 22 27 29 37 41 45 46 45 48 50 45 51 61 56 63 63 51 47 50
64 59 51 42 39 35 23 19 17 3 8 7 14 24 18 18 12 13 11 10 8 11 13 18 26 32 33 37 39 43 41 43 50 42 42 45 47 66 57 57 54 53 49
64 59 51 46 42 31 30 16 20 11 11 2 10 18 19 13 14 15 16 14 15 19 19 18 26 28 33 36 42 39 35 44 42 45 43 40 46 55 53 58 67 55 45
63 57 51 45 40 33 31 22 22 11 12 5 6 14 13 14 16 18 15 15 18 22 18 21 24 31 33 37 41 36 37 45 44 43 43 44 42 57 43 50 63 68 41
61 56 53 47 38 36 30 22 17 19 12 2 8 9 12 13 16 12 18 20 25 25 24 25 30 32 31 39 43 44 43 48 43 41 38 36 39 39 43 43 64 56 54
63 57 54 46 38 37 31 28 23 18 17 11 13 4 11 13 17 16 20 19 22 25 29 27 31 37 39 39 47 50 46 50 48 40 31 34 39 48 43 47 51 43 40
59 55 55 49 40 38 32 28 23 24 15 15 14 10 6 9 16 18 26 23 15 20 25 29 35 36 41 45 44 46 55 61 49 31 25 39 53 47 46 48 43 47 44
59 58 57 51 44 38 35 27 27 27 17 19 15 17 7 10 15 19 21 31 34 33 33 25 30 35 38 40 40 44 47 50 37 32 33 48 58 53 40 53 53 44 43
65 63 61 54 47 41 39 32 26 29 23 25 17 20 11 11 17 19 23 31 34 34 34 28 30 28 28 31 36 35 39 42 42 34 34 39 48 51 52 48 34 27 33
69 68 65 58 51 46 43 37 26 34 28 28 20 16 15 23 27 21 19 23 27 32 29 26 28 30 25 24 34 36 37 33 39 28 35 37 60 60 50 35 25 28 42
76 70 65 59 57 53 47 43 34 39 32 31 26 16 24 26 22 22 18 23 25 25 19 24 29 32 35 31 28 37 36 35 38 37 41 61 56 45 36 31 33 23 25
79 73 70 63 59 58 49 47 41 42 37 33 30 18 32 30 28 27 26 25 21 20 18 17 19 33 34 28 36 40 39 39 41 54 64 57 53 40 33 33 33 30 26
81 77 74 65 59 57 55 47 48 43 38 37 33 22 35 33 31 31 30 27 23 17 13 28 30 29 34 34 35 34 36 37 42 60 53 46 42 38 35 27 30 27 25
76 76 77 69 63 60 59 54 54 46 41 40 39 28 31 38 29 35 35 34 28 19 14 23 29 32 36 35 32 34 41 46 45 46 44 42 41 35 27 29 35 34 33
71 73 79 74 69 65 63 60 58 52 47 38 45 35 23 38 33 37 34 33 36 26 18 18 22 26 31 32 33 38 44 39 37 35 35 35 33 34 33 32 31 30 28
72 68 78 78 74 71 67 64 63 60 50 39 44 42 33 38 35 40 38 30 34 34 24 16 20 24 27 34 32 31 35 36 36 37 40 37 35 30 29 29 29 30 28
70 72 80 79 78 75 71 66 67 60 51 46 48 48 41 37 38 39 41 33 37 38 35 29 19 20 29 36 37 35 31 31 31 33 35 33 34 35 34 33 28 20 18
73 78 80 80 82 79 73 67 62 61 56 50 54 52 48 41 40 40 43 41 41 41 41 37 32 25 27 37 43 38 32 31 31 30 32 34 36 36 33 29 24 21 19
73 79 82 85 84 82 75 61 60 64 61 55 57 58 54 48 42 37 41 43 46 52 47 44 42 34 31 39 50 49 39 41 37 36 39 40 37 33 32 26 25 22 22
66 69 78 83 79 81 76 66 61 66 66 59 59 62 61 55 48 42 41 41 46 54 53 50 44 42 39 41 48 54 50 46 41 41 42 44 43 39 36 31 25 24 28
59 62 70 72 74 73 71 67 66 68 72 67 65 63 66 62 54 44 44 38 41 43 53 37 40 39 30 28 41 50 50 54 50 50 46 45 41 37 31 33 39 38 32
Wind_Direction_850mb
178 182 192 196 205 215 243 263 276 285 312 335 345 343 333 329 333 349 329 311 245 217 204 241 216 189 186 193 181 183 193 185 172 160 156 157 165 178 169 173 182 172 175
167 178 186 195 202 213 228 230 264 274 342 348 344 347 334 322 335 342 354 356 173 185 185 180 176 176 179 185 190 179 175 165 169 159 149 140 158 166 163 163 170 170 172
170 175 182 191 191 203 213 238 225 275 329 340 343 353 336 340 329 354 355 24 140 169 176 181 161 160 186 188 190 185 180 169 175 171 163 150 154 149 163 160 162 161 172
173 178 182 180 189 198 210 197 235 209 289 345 351 358 356 348 327 338 348 74 209 184 174 179 159 176 177 180 186 182 185 183 167 161 164 167 159 140 134 148 160 169 174
174 177 176 177 181 189 199 205 233 200 53 336 344 351 347 348 338 339 24 55 195 195 196 171 166 172 169 170 177 177 185 185 176 167 157 162 152 142 137 145 160 166 177
170 170 171 172 170 185 198 208 212 218 129 309 340 351 352 29 40 37 32 40 68 143 171 176 167 159 165 165 170 178 182 186 183 179 176 165 168 159 157 154 165 167 177
163 164 167 168 171 186 203 191 201 195 126 335 351 11 45 85 63 29 34 41 107 130 141 158 169 164 169 171 171 175 181 183 180 181 176 183 166 168 170 162 159 156 168
163 166 169 171 177 190 193 204 193 169 148 243 359 43 89 55 50 46 50 61 96 116 119 127 152 168 173 171 175 178 177 172 171 172 178 180 184 188 185 177 161 156 162
164 165 169 174 181 188 196 186 182 167 180 282 54 60 62 57 46 33 47 71 103 119 113 125 132 140 163 170 171 168 165 164 172 173 171 182 175 175 185 176 174 161 142
162 166 171 176 183 189 191 182 187 181 190 140 101 48 36 58 53 39 59 90 109 112 125 122 131 136 151 151 154 162 161 165 169 157 153 161 168 172 178 186 179 171 165
166 168 172 176 182 189 192 184 189 190 179 169 155 108 72 54 56 64 71 101 112 112 123 121 131 136 145 153 155 162 161 150 147 152 159 167 166 158 156 169 179 175 174
167 172 173 175 182 189 194 191 191 189 189 180 151 142 122 91 87 81 76 88 106 115 117 125 134 147 146 149 155 162 162 156 151 126 140 157 153 152 153 148 147 167 163
170 174 177 178 185 190 194 191 184 195 187 184 166 156 178 133 118 99 77 83 94 105 109 117 133 147 155 157 158 160 166 172 163 129 124 146 152 146 143 149 145 141 154
173 177 179 180 186 191 196 194 181 198 183 190 184 168 191 154 117 114 102 106 93 89 95 94 113 134 144 154 159 162 158 154 156 139 128 140 154 147 142 142 139 143 147
176 180 181 181 187 190 195 199 185 193 185 194 191 171 176 143 114 116 113 109 97 93 97 106 118 133 130 154 165 165 156 160 168 151 145 146 144 139 134 129 141 159 176
179 182 183 186 188 191 192 199 188 194 186 197 202 187 175 152 140 138 128 124 109 131 120 95 94 126 126 120 118 163 173 175 178 169 157 162 157 152 150 143 150 156 164
182 184 184 190 192 193 192 196 193 194 187 194 201 197 172 165 166 156 145 137 136 133 118 127 117 115 114 129 127 122 130 127 142 145 144 153 169 165 159 152 148 167 174
184 189 187 191 195 196 195 194 195 197 191 191 201 204 174 182 184 172 162 154 158 155 122 135 137 123 112 118 127 132 127 130 133 154 158 152 157 155 154 154 161 162 175
185 194 192 191 193 194 192 190 194 198 196 191 205 203 186 188 187 177 178 174 167 165 144 147 147 144 135 132 129 133 134 132 135 146 156 161 158 153 159 170 175 180 185
185 190 192 191 192 194 193 190 193 198 198 193 205 204 195 190 189 188 196 191 188 183 166 142 158 155 149 143 142 144 146 142 143 150 159 163 162 165 169 172 180 181 186
184 186 189 193 198 194 193 192 193 199 203 194 200 204 197 197 204 195 203 202 194 182 178 177 164 172 175 164 161 159 165 171 165 166 171 170 174 174 172 170 170 173 169
180 185 188 194 198 196 194 195 197 200 200 196 198 205 201 200 202 205 208 211 193 182 180 204 207 196 186 187 181 181 182 187 184 181 179 177 176 177 175 178 175 178 190
180 186 189 195 196 198 200 199 202 194 198 196 201 205 203 206 207 208 209 209 199 188 192 198 214 221 196 189 188 191 188 186 180 179 177 173 170 174 176 179 188 207 218
178 185 190 193 195 200 203 208 200 196 196 196 203 205 205 205 207 213 217 215 207 200 200 203 211 217 200 193 190 190 188 177 170 166 172 174 179 184 194 199 213 227 229
176 183 190 194 197 201 203 206 204 196 195 196 206 209 208 210 213 222 224 226 223 213 208 211 217 210 203 199 196 194 189 184 181 179 183 187 193 201 206 212 216 212 208
177 183 188 192 198 201 205 206 207 203 197 197 207 210 208 210 216 220 217 228 231 218 214 217 212 213 215 205 203 201 195 190 190 192 198 197 201 210 210 204 197 210 211